Location: Normandy Village
(37.8755°N, 122.2655°W)
Time: 07:54:05
(UTC+00:00)

Shenzhou-11 Module - Pass Details

Date: 22 September 2019
Orbit: 313 x 326 km, 42.8° (Epoch: 22 October)

Event Time Altitude Azimuth Distance (km) Brightness Sun altitude
Exits shadow 12:43:53 47° 273° (W) 424 1.8 -15.1°
Maximum altitude 12:44:29 70° 339° (NNW) 338 1.7 -15.0°
Drops below altitude 10° 12:47:12 10° 64° (ENE) 1,216 5.9 -14.4°
Sets 12:49:12 0° 67° (ENE) 2,051 7.5 -14.1°
